Погода в Кабале

Погода в Кабале : погода сейчас, прогноз погоды и архив. Всё, что Вы хотите узнать о погоде в Кабале!

Поиск расширенной информации на нашем сайте:

Полезная информация: Цветы в шляпных коробках цветы в шляпных коробках. 3

Другие новости

Новости СМИ2

Главная страница сайта

Новости сайта

02.10.2013

Напоминаем, что на нашем новом сайте вы можете получить высокодетализированные прогнозы погоды по пунктам России, СНГ и мира (включающие важные для авиации метеовеличины, такие как направление и скорость ветра, видимость, явления погоды, количество и форма облачности, нижняя и верхняя граница облачности), а также ознакомиться с разнообразными материалами по авиационной метеорологии и подборкой полезных ссылок на эту тему.

Сайт Метеоцентр.Азия посвящён разработке технологий оптимизации авиаметеорологического обслуживания, включая проектирование и перспективное создание нескольких автоматизированных авиаметеорологических систем:
- система выпуска высокодетальных прогностических карт явлений погоды для нижнего воздушного пространства по России и ближнему зарубежью;
- система верификации прогнозов TAF (выпускаемых синоптиками официальных АМСГ РФ и ближнего зарубежья) и AUTOTAF (выпускаемых сайтом Метеоцентр.Азия) - выявление ошибок, онлайн-сопоставление с фактической погодой METAR, автоматическое внесение коррективов в прогнозы при резком отклонении фактической погоды от прогноза, подсчёт оправдываемости прогнозов по элементам и в целом;
- система обработки, анализа и отображения авиаметеорологической информации для применения провайдерами метеорологической информации.

Рекомендуем: У нас товары для похудения приобрести реально выгодно!

Погода в Кабале - сегодня

Время (UTC), дата Ветер
(°,м/с) 
Видим.   Явления Облачность Т
(°С)
Тd
(°С)
f(%) Тe
(°С)
Pmin
(гПа)
dP
(гПа)
Po
(мм)
O2
(г/м3)
Тmin Tmax R s Состояние
почвы
12 25.02.17 270 (З) 20000 м    ясно 
+16.5 +5.5 48 +18  1018.8  -2.2  706  267           
15 25.02.17 360 (С) 20000 м    ясно 
+11.5 +1.1 49 +13  1020.2  -0.1  706  273           
18 25.02.17 050 (СВ) 20000 м    ясно 
+8.6 -0.7 52 +10  1019.7  -1.2  705  275    +17       
21 25.02.17 360 (С) 20000 м    ясно 
+7.2 +0 60 +7  1018.8  -1.2  704  276           
00 26.02.17 360 (С) 20000 м    ясно 
+5 -2.2 60 +6  1018  -1.4  703  278           
03 26.02.17 050 (СВ) 20000 м    ясно 
+4 -1.9 65 +5  1015.9  -2.2  701  279           
06 26.02.17 090 (В) 20000 м    ясно 
+8.4 +0.4 57 +9  1016  1.3  702  274           
09 26.02.17 260 (З) 98  4000 м    5/4 1500 м 
[Sc]
+14.8 +4.3 49 +10  1014.6  0.4  702  268           
12 26.02.17 270 (З) 20000 м    9/9 1000 м 
[Sc]
+12.7 +2.5 50 +12  1015.2  702  270           
15 26.02.17 250 (З) 20000 м    4/4 1000 м 
[Sc]
+11.7 +1.5 50 +11  1017.6  704  272           
18 26.02.17 140 (ЮВ) 20000 м    4/4 1000 м 
[Sc]
+6 +0.3 67 +7  1025.4  5.6  708  279    +15.1       
21 26.02.17 270 (З) 4000 м    10/10 600 м 
[Sc]
+2.2 -2.1 73 +3  1029.6  2.8  710  284           
00 27.02.17 270 (З) 4000 м    10/10 600 м 
[Sc]
-0.2 -4 75 -1  1031.2  0.8  711  287           
03 27.02.17 270 (З) 4000 м    10/10 600 м 
[Sc]
-1.2 -4.8 76 -1  1032.1  0.5  711  288           
06 27.02.17 230 (ЮЗ) 10 км    10/10 600 м 
[Sc]
-0.4 -4.2 75 1032.8  0.9  712  288           
09 27.02.17 230 (ЮЗ) 10 км    9/9 600 м 
[Sc]
+4 -5.5 50 +5  1030  -1.3  711  283           
12 27.02.17 270 (З) 10 км    6/6 600 м 
[Sc]
+6.4 -3.5 49 +6  1026.1  -2.9  709  279           
15 27.02.17 270 (З) 20000 м    4/0 средняя 
[Ac trans]
+4.8 -4.3 52 +6  1024.7  -1.8  707  280           
18 27.02.17 360 (С) 20000 м    ясно 
+1.2 -2.3 77 +2  1025.7  707  284    +11.7       
21 27.02.17 270 (З) 20000 м    ясно 
-0.2 -2.6 84 1025.8  -0.4  707  285           
00 28.02.17 050 (СВ) 20000 м    ясно 
-1 -3.2 85 1025.4  -0.6  707  286           
03 28.02.17 020 (С) 20000 м    3/0 средняя 
[Ac trans]
-0.8 -3.6 81 1026  0.6  707  286           
06 28.02.17 090 (В) 20000 м    3/0 средняя 
[Ac trans]
+3.4 -0.7 74 +4  1026.1  1.4  708  282           
09 28.02.17 180 (Ю) 20000 м    4/0 средняя 
[Ac trans]
+8.6 +0 55 +10  1025.9  1.2  709  277           
12 28.02.17 180 (Ю) 20000 м    ясно 
+12.3 +3.8 56 +14  1023.6  -1  708  272           
Время (UTC), дата Ветер
(°,м/с) 
Видим.   Явления Облачность Т
(°С)
Тd
(°С)
f(%) Тe
(°С)
Pmin
(гПа)
dP
(гПа)
Po
(мм)
O2
(г/м3)
Тmin Tmax R s Состояние
почвы

Для получения пояснительной информации подведите курсор к названию столбца.

ПОГОДА в Кабале - архив

Всё, что Вы хотите узнать о погоде в Кабале - удобно и подробно!

Выберите нужную дату (начиная с 1 января 2015* года) и нажмите кнопку "Найти".
Будут отображены архивные сводки погоды по пункту Кабала, начиная с указанной даты.


Отображать данные в формате CSV (для использования в таблицах Excel)


Внимание! Наш архив погоды предназначен исключительно для личного некоммерческого использования в познавательных целях. Если Вам необходимы официальные справки о состоянии погоды (для производственных, юридических, коммерческих и т.п. целей), обращайтесь в органы Росгидромета.

*Примечание: данная дата относится к архиву по метеостанциям СССР (Россия, СНГ, Балтия).
Архив по метеостанциям Зарубежной Европы и Азии (кроме Китая) хранится 10 дней, по другим регионам земного шара (Китай, Африка, Америка, Австралия, Океания) - 1 день.

Кабала - район местоположения метеостанции


Название, широта, долгота, высота метеостанции:
Кабала 41°ш. 47.9°д. 682 м над ур. моря [Азербайджан]

Дополнительная информация

В oтличие oт бoльшинства пoгoдных сайтoв мы публикуем пoдрoбную метеoинфoрмацию в детальнoм прoфессиoнальнoм фoрмате.

Характеристики температуры и влажнoсти вoздуха измеряются на высoте 2 м в тени вдали oт зданий и деревьев.
Скoрoсть ветра измеряется на высoте 10 м (на урoвне рoста челoвека скoрoсть ветра ниже в 1.5-2 раза). Если метеoстанция нахoдится в гoрoде или в лесу, тo скoрoсть ветра занижена на 2-4 м/с пo сравнению с oткрытым местoм. Скoрoсть ветра над акватoриями крупных рек и oзёр, а также на вершинах хoлмoв на 2-5 м/с выше, чем в oбычных услoвиях.
Атмoсфернoе давление в разных тoчках местнoсти мoжет значительнo oтличаться oт давления на метеoстанции, в зависимoсти oт услoвий рельефа (при пoдъёме на 10 м давление пoнижается примернo на 1 мм рт.ст.).